When you browse on this site, cookies collect data to enhance your experience and personalize the content and advertising you see.
Visit our Privacy Policy to learn more. By continuing to use the site, you agree to this use of cookies and data.

Hourly Weather Sharanski

Today, 11 July, Saturday

Time Temperature Precipitation Wind Pressure Humidity
00:00 +15°C° 0 mm 2 mps 750 mmHg 98%
01:00 +15°C° 0 mm 2 mps 750 mmHg 98%
02:00 +15°C° 0 mm 2 mps 750 mmHg 99%
03:00 +16°C° 0.4 mm 2 mps 750 mmHg 98%
04:00 +17°C° 0.4 mm 3 mps 749 mmHg 98%
05:00 +17°C° 0.4 mm 4 mps 749 mmHg 98%
06:00 +18°C° 0.4 mm 4 mps 749 mmHg 97%
07:00 +17°C° 0.4 mm 5 mps 749 mmHg 96%
08:00 +19°C° 0 mm 5 mps 749 mmHg 96%
09:00 +19°C° 0.1 mm 6 mps 749 mmHg 83%
10:00 +20°C° 0.1 mm 6 mps 750 mmHg 71%
11:00 +20°C° 0.1 mm 7 mps 751 mmHg 59%
12:00 +20°C° 0 mm 7 mps 751 mmHg 56%
13:00 +20°C° 0 mm 7 mps 752 mmHg 52%
14:00 +21°C° 0 mm 7 mps 752 mmHg 49%
15:00 +21°C° 0 mm 7 mps 753 mmHg 50%
16:00 +20°C° 0 mm 6 mps 753 mmHg 51%
17:00 +20°C° 0 mm 6 mps 753 mmHg 52%
18:00 +19°C° 0 mm 5 mps 754 mmHg 58%
19:00 +17°C° 0 mm 4 mps 754 mmHg 64%
20:00 +16°C° 0 mm 3 mps 755 mmHg 71%
21:00 +14°C° 0 mm 3 mps 756 mmHg 76%
22:00 +12°C° 0 mm 3 mps 756 mmHg 82%
23:00 +12°C° 0 mm 2 mps 757 mmHg 88%

Tomorrow, 12 July, Sunday

Time Temperature Precipitation Wind Pressure Humidity
00:00 +10°C° 0 mm 2 mps 757 mmHg 90%
01:00 +10°C° 0 mm 2 mps 757 mmHg 93%
02:00 +10°C° 0 mm 2 mps 757 mmHg 96%
03:00 +11°C° 0 mm 1 mps 757 mmHg 94%
04:00 +11°C° 0 mm 1 mps 757 mmHg 93%
05:00 +12°C° 0 mm 1 mps 757 mmHg 91%
06:00 +13°C° 0 mm 1 mps 757 mmHg 85%
07:00 +14°C° 0 mm 1 mps 757 mmHg 79%
08:00 +16°C° 0 mm 1 mps 757 mmHg 73%
09:00 +18°C° 0 mm 1 mps 757 mmHg 67%
10:00 +19°C° 0 mm 1 mps 757 mmHg 62%
11:00 +20°C° 0 mm 1 mps 757 mmHg 56%
12:00 +21°C° 0.1 mm 1 mps 757 mmHg 56%
13:00 +21°C° 0.1 mm 1 mps 757 mmHg 56%
14:00 +21°C° 0.1 mm 1 mps 757 mmHg 56%
15:00 +21°C° 0.1 mm 1 mps 757 mmHg 59%
16:00 +20°C° 0.1 mm 2 mps 756 mmHg 62%
17:00 +19°C° 0.1 mm 2 mps 756 mmHg 66%
18:00 +19°C° 0.2 mm 1 mps 756 mmHg 73%
19:00 +18°C° 0.2 mm 1 mps 756 mmHg 81%
20:00 +15°C° 0.2 mm 1 mps 756 mmHg 88%
21:00 +14°C° 0 mm 1 mps 756 mmHg 90%
22:00 +13°C° 0 mm 1 mps 756 mmHg 92%
23:00 +12°C° 0 mm 1 mps 756 mmHg 94%

Day after tomorrow, 13 July, Monday

Time Temperature Precipitation Wind Pressure Humidity
00:00 +12°C° 0 mm 1 mps 756 mmHg 94%
01:00 +11°C° 0 mm 1 mps 756 mmHg 94%
02:00 +11°C° 0 mm 1 mps 756 mmHg 95%
03:00 +10°C° 0 mm 2 mps 756 mmHg 95%
04:00 +10°C° 0 mm 2 mps 756 mmHg 94%
05:00 +10°C° 0 mm 2 mps 756 mmHg 94%
06:00 +13°C° 0 mm 2 mps 756 mmHg 87%
07:00 +14°C° 0 mm 2 mps 756 mmHg 80%
08:00 +16°C° 0 mm 2 mps 756 mmHg 73%
09:00 +17°C° 0 mm 2 mps 755 mmHg 65%
10:00 +19°C° 0 mm 2 mps 755 mmHg 57%
11:00 +20°C° 0 mm 2 mps 755 mmHg 48%
12:00 +21°C° 0 mm 2 mps 755 mmHg 45%
13:00 +21°C° 0 mm 2 mps 754 mmHg 42%
14:00 +23°C° 0 mm 2 mps 754 mmHg 39%
15:00 +23°C° 0 mm 2 mps 754 mmHg 42%
16:00 +23°C° 0 mm 2 mps 754 mmHg 45%
17:00 +21°C° 0 mm 3 mps 753 mmHg 49%
18:00 +20°C° 0 mm 2 mps 754 mmHg 58%
19:00 +18°C° 0 mm 2 mps 754 mmHg 67%
20:00 +18°C° 0 mm 1 mps 754 mmHg 76%
21:00 +15°C° 0 mm 1 mps 754 mmHg 79%
22:00 +14°C° 0 mm 1 mps 754 mmHg 81%
23:00 +13°C° 0 mm 1 mps 754 mmHg 84%

14 July, Tuesday

Time Temperature Precipitation Wind Pressure Humidity
00:00 +12°C° 0 mm 2 mps 754 mmHg 86%
01:00 +12°C° 0 mm 2 mps 754 mmHg 89%
02:00 +10°C° 0 mm 2 mps 754 mmHg 91%
03:00 +10°C° 0 mm 2 mps 755 mmHg 91%
04:00 +10°C° 0 mm 2 mps 755 mmHg 91%
05:00 +10°C° 0 mm 2 mps 755 mmHg 92%
06:00 +13°C° 0 mm 2 mps 755 mmHg 82%
07:00 +15°C° 0 mm 2 mps 755 mmHg 73%
08:00 +16°C° 0 mm 3 mps 755 mmHg 64%
09:00 +18°C° 0 mm 3 mps 755 mmHg 58%
10:00 +19°C° 0 mm 2 mps 755 mmHg 52%
11:00 +20°C° 0 mm 2 mps 755 mmHg 46%
12:00 +20°C° 0 mm 3 mps 755 mmHg 45%
13:00 +21°C° 0 mm 3 mps 755 mmHg 44%
14:00 +22°C° 0 mm 3 mps 755 mmHg 43%
15:00 +21°C° 0 mm 2 mps 755 mmHg 44%
16:00 +21°C° 0 mm 2 mps 755 mmHg 45%
17:00 +21°C° 0 mm 2 mps 755 mmHg 47%
18:00 +20°C° 0 mm 2 mps 755 mmHg 54%
19:00 +19°C° 0 mm 1 mps 755 mmHg 62%
20:00 +16°C° 0 mm 1 mps 755 mmHg 70%
21:00 +15°C° 0 mm 1 mps 755 mmHg 72%
22:00 +13°C° 0 mm 0 mps 756 mmHg 74%
23:00 +11°C° 0 mm 0 mps 756 mmHg 77%

15 July, Wednesday

Time Temperature Precipitation Wind Pressure Humidity
00:00 +11°C° 0 mm 0 mps 756 mmHg 79%
01:00 +10°C° 0 mm 0 mps 756 mmHg 81%
02:00 +10°C° 0 mm 0 mps 756 mmHg 83%
03:00 +10°C° 0 mm 0 mps 756 mmHg 83%
04:00 +11°C° 0 mm 0 mps 756 mmHg 82%
05:00 +11°C° 0 mm 0 mps 756 mmHg 81%
06:00 +14°C° 0 mm 0 mps 756 mmHg 74%
07:00 +16°C° 0 mm 0 mps 756 mmHg 67%
08:00 +18°C° 0 mm 0 mps 756 mmHg 60%
09:00 +20°C° 0 mm 0 mps 756 mmHg 55%
10:00 +21°C° 0 mm 0 mps 756 mmHg 50%
11:00 +22°C° 0 mm 0 mps 755 mmHg 45%
12:00 +25°C° 0 mm 1 mps 755 mmHg 44%
13:00 +25°C° 0 mm 1 mps 755 mmHg 42%
14:00 +25°C° 0 mm 1 mps 755 mmHg 41%
15:00 +25°C° 0 mm 1 mps 754 mmHg 42%
16:00 +24°C° 0 mm 1 mps 754 mmHg 44%
17:00 +24°C° 0 mm 1 mps 754 mmHg 45%
18:00 +22°C° 0 mm 1 mps 754 mmHg 53%
19:00 +20°C° 0 mm 1 mps 754 mmHg 60%
20:00 +19°C° 0 mm 1 mps 754 mmHg 67%
21:00 +18°C° 0 mm 1 mps 754 mmHg 68%
22:00 +15°C° 0 mm 1 mps 754 mmHg 69%
23:00 +14°C° 0 mm 1 mps 754 mmHg 70%

16 July, Thursday

Time Temperature Precipitation Wind Pressure Humidity
00:00 +14°C° 0 mm 1 mps 753 mmHg 73%
01:00 +13°C° 0 mm 1 mps 753 mmHg 77%
02:00 +11°C° 0 mm 0 mps 753 mmHg 81%
03:00 +12°C° 0 mm 0 mps 753 mmHg 82%
04:00 +12°C° 0 mm 0 mps 753 mmHg 83%
05:00 +12°C° 0 mm 0 mps 752 mmHg 84%
06:00 +15°C° 0 mm 1 mps 752 mmHg 77%
07:00 +19°C° 0 mm 1 mps 752 mmHg 70%
08:00 +21°C° 0 mm 1 mps 751 mmHg 62%
09:00 +22°C° 0 mm 1 mps 751 mmHg 57%
10:00 +24°C° 0 mm 1 mps 750 mmHg 51%
11:00 +25°C° 0 mm 1 mps 750 mmHg 45%
12:00 +26°C° 0 mm 1 mps 749 mmHg 44%
13:00 +26°C° 0 mm 1 mps 749 mmHg 42%
14:00 +27°C° 0 mm 1 mps 748 mmHg 40%
15:00 +26°C° 0 mm 1 mps 748 mmHg 42%
16:00 +26°C° 0 mm 1 mps 748 mmHg 44%
17:00 +25°C° 0 mm 1 mps 747 mmHg 45%
18:00 +24°C° 0 mm 1 mps 747 mmHg 53%
19:00 +22°C° 0 mm 1 mps 747 mmHg 60%
20:00 +20°C° 0 mm 1 mps 747 mmHg 68%
21:00 +19°C° 0 mm 1 mps 747 mmHg 72%
22:00 +18°C° 0 mm 1 mps 747 mmHg 76%
23:00 +16°C° 0 mm 1 mps 747 mmHg 81%
Show more